Time,TemperatureF,DewpointF,PressureIn,WindDirection,WindDirectionDegrees,WindSpeedMPH,WindSpeedGustMPH,Humidity,HourlyPrecipIn,Conditions,Clouds,dailyrainin,SoftwareType,DateUTC
2014-10-20 00:21:00,58.0,56.0,29.74,SSW,201,15.0,18.0,94,0.05,,,0.20,,2014-10-20 07:21:00,
2014-10-20 00:52:00,58.0,56.0,29.74,South,181,9.0,17.0,94,0.05,,,0.23,,2014-10-20 07:52:00,
2014-10-20 01:12:00,58.0,56.0,29.74,South,186,11.0,19.0,94,0.06,,,0.25,,2014-10-20 08:12:00,
2014-10-20 01:22:00,58.0,57.0,29.74,South,179,8.0,15.0,95,0.06,,,0.26,,2014-10-20 08:22:00,
2014-10-20 01:42:00,58.0,57.0,29.74,South,189,13.0,18.0,95,0.05,,,0.27,,2014-10-20 08:42:00,
2014-10-20 01:52:00,58.0,57.0,29.75,South,176,10.0,16.0,95,0.04,,,0.27,,2014-10-20 08:52:00,
2014-10-20 02:11:00,58.0,57.0,29.75,South,190,9.0,13.0,95,0.02,,,0.27,,2014-10-20 09:11:00,
2014-10-20 02:22:00,58.0,56.0,29.75,South,189,7.0,15.0,94,0.01,,,0.27,,2014-10-20 09:22:00,
2014-10-20 02:43:00,58.0,56.0,29.74,South,186,8.0,17.0,94,0.01,,,0.28,,2014-10-20 09:43:00,
2014-10-20 02:54:00,59.0,57.0,29.75,South,172,8.0,14.0,94,0.02,,,0.28,,2014-10-20 09:54:00,
2014-10-20 03:13:00,59.0,57.0,29.75,South,169,7.0,13.0,94,0.02,,,0.28,,2014-10-20 10:13:00,
2014-10-20 03:23:00,58.0,56.0,29.73,SSE,154,10.0,17.0,93,0.02,,,0.28,,2014-10-20 10:23:00,
2014-10-20 03:43:00,58.0,56.0,29.74,SSW,198,9.0,18.0,93,0.01,,,0.28,,2014-10-20 10:43:00,
2014-10-20 03:53:00,58.0,56.0,29.74,SSE,160,8.0,14.0,92,0.00,,,0.28,,2014-10-20 10:53:00,
2014-10-20 04:13:00,58.0,56.0,29.73,SSW,203,8.0,14.0,92,0.00,,,0.28,,2014-10-20 11:13:00,
2014-10-20 04:22:00,59.0,57.0,29.73,South,179,8.0,13.0,92,0.00,,,0.28,,2014-10-20 11:22:00,
2014-10-20 04:42:00,59.0,57.0,29.73,South,186,7.0,13.0,92,0.00,,,0.28,,2014-10-20 11:42:00,
2014-10-20 04:52:00,59.0,57.0,29.74,South,188,11.0,19.0,92,0.00,,,0.28,,2014-10-20 11:52:00,
2014-10-20 05:12:00,59.0,57.0,29.74,South,173,12.0,21.0,92,0.00,,,0.28,,2014-10-20 12:12:00,
2014-10-20 05:22:00,59.0,56.0,29.73,South,178,11.0,15.0,91,0.01,,,0.28,,2014-10-20 12:22:00,
2014-10-20 05:42:00,59.0,56.0,29.73,South,189,10.0,18.0,91,0.01,,,0.28,,2014-10-20 12:42:00,
2014-10-20 05:52:00,59.0,56.0,29.73,South,180,10.0,19.0,91,0.01,,,0.28,,2014-10-20 12:52:00,
2014-10-20 06:22:00,60.0,57.0,29.73,South,171,10.0,17.0,91,0.00,,,0.28,,2014-10-20 13:22:00,
2014-10-20 06:42:00,59.0,56.0,29.74,South,179,10.0,15.0,91,0.00,,,0.28,,2014-10-20 13:42:00,
2014-10-20 06:52:00,59.0,56.0,29.74,SSW,197,12.0,22.0,91,0.00,,,0.28,,2014-10-20 13:52:00,
2014-10-20 07:12:00,59.0,56.0,29.74,South,174,10.0,23.0,91,0.00,,,0.28,,2014-10-20 14:12:00,
2014-10-20 07:22:00,59.0,56.0,29.74,South,183,10.0,18.0,90,0.00,,,0.28,,2014-10-20 14:22:00,
2014-10-20 07:42:00,59.0,56.0,29.74,South,185,9.0,14.0,89,0.00,,,0.28,,2014-10-20 14:42:00,
2014-10-20 07:52:00,59.0,56.0,29.74,South,173,9.0,24.0,89,0.00,,,0.28,,2014-10-20 14:52:00,
2014-10-20 08:12:00,59.0,56.0,29.74,SSE,163,10.0,16.0,89,0.00,,,0.28,,2014-10-20 15:12:00,
2014-10-20 08:22:00,59.0,56.0,29.74,SSE,153,7.0,18.0,89,0.00,,,0.28,,2014-10-20 15:22:00,
2014-10-20 08:43:00,59.0,56.0,29.74,SSW,202,13.0,20.0,90,0.00,,,0.28,,2014-10-20 15:43:00,
2014-10-20 08:53:00,60.0,57.0,29.75,South,191,11.0,21.0,90,0.00,,,0.28,,2014-10-20 15:53:00,
2014-10-20 09:13:00,60.0,57.0,29.76,South,189,10.0,21.0,90,0.00,,,0.28,,2014-10-20 16:13:00,
2014-10-20 09:23:00,60.0,57.0,29.76,South,187,12.0,20.0,90,0.00,,,0.28,,2014-10-20 16:23:00,
2014-10-20 09:42:00,60.0,57.0,29.77,SSE,166,13.0,23.0,90,0.00,,,0.28,,2014-10-20 16:42:00,
2014-10-20 09:53:00,60.0,57.0,29.78,SSE,168,17.0,24.0,89,0.00,,,0.28,,2014-10-20 16:53:00,
2014-10-20 10:12:00,60.0,57.0,29.78,South,169,15.0,24.0,89,0.00,,,0.28,,2014-10-20 17:12:00,
2014-10-20 10:23:00,60.0,57.0,29.78,SSW,198,10.0,23.0,89,0.00,,,0.28,,2014-10-20 17:23:00,
2014-10-20 10:43:00,61.0,57.0,29.78,South,183,17.0,24.0,88,0.00,,,0.28,,2014-10-20 17:43:00,
2014-10-20 10:53:00,61.0,57.0,29.78,South,175,12.0,22.0,88,0.00,,,0.28,,2014-10-20 17:53:00,
2014-10-20 11:12:00,61.0,57.0,29.78,SSE,160,17.0,27.0,86,0.00,,,0.28,,2014-10-20 18:12:00,
2014-10-20 11:22:00,61.0,57.0,29.78,South,183,18.0,26.0,86,0.00,,,0.28,,2014-10-20 18:22:00,
2014-10-20 11:52:00,62.0,57.0,29.78,SSE,162,17.0,28.0,85,0.00,,,0.28,,2014-10-20 18:52:00,
2014-10-20 12:12:00,62.0,57.0,29.79,South,184,19.0,27.0,84,0.00,,,0.28,,2014-10-20 19:12:00,
2014-10-20 12:22:00,63.0,57.0,29.79,South,189,18.0,31.0,82,0.00,,,0.28,,2014-10-20 19:22:00,
2014-10-20 12:42:00,62.0,57.0,29.79,South,183,20.0,30.0,84,0.00,,,0.28,,2014-10-20 19:42:00,
2014-10-20 12:52:00,62.0,58.0,29.79,SSE,168,24.0,32.0,86,0.00,,,0.28,,2014-10-20 19:52:00,
2014-10-20 13:12:00,61.0,55.0,29.79,South,186,21.0,31.0,82,0.00,,,0.28,,2014-10-20 20:12:00,
2014-10-20 13:22:00,62.0,56.0,29.79,South,184,15.0,31.0,82,0.00,,,0.28,,2014-10-20 20:22:00,
2014-10-20 13:43:00,63.0,57.0,29.78,South,178,20.0,28.0,80,0.00,,,0.28,,2014-10-20 20:43:00,
2014-10-20 13:52:00,63.0,56.0,29.79,South,174,21.0,30.0,78,0.00,,,0.28,,2014-10-20 20:52:00,
2014-10-20 14:22:00,63.0,57.0,29.79,South,189,20.0,26.0,81,0.00,,,0.28,,2014-10-20 21:22:00,
2014-10-20 14:43:00,62.0,55.0,29.79,South,189,18.0,27.0,78,0.00,,,0.28,,2014-10-20 21:43:00,
2014-10-20 14:54:00,61.0,54.0,29.80,SSW,193,18.0,28.0,79,0.00,,,0.28,,2014-10-20 21:54:00,
2014-10-20 15:13:00,60.0,54.0,29.80,South,177,16.0,25.0,81,0.01,,,0.28,,2014-10-20 22:13:00,
2014-10-20 15:22:00,60.0,56.0,29.80,SW,216,10.0,11.0,86,0.03,,,0.31,,2014-10-20 22:22:00,
2014-10-20 15:43:00,60.0,57.0,29.80,SSW,194,12.0,17.0,89,0.03,,,0.31,,2014-10-20 22:43:00,
2014-10-20 15:53:00,60.0,57.0,29.80,SSE,162,15.0,26.0,90,0.03,,,0.31,,2014-10-20 22:53:00,
2014-10-20 16:12:00,61.0,57.0,29.80,South,181,18.0,26.0,88,0.01,,,0.31,,2014-10-20 23:12:00,
2014-10-20 16:22:00,61.0,57.0,29.81,South,189,17.0,29.0,86,0.00,,,0.31,,2014-10-20 23:22:00,
2014-10-20 16:42:00,60.0,54.0,29.81,SSW,196,17.0,27.0,81,0.00,,,0.31,,2014-10-20 23:42:00,
2014-10-20 16:53:00,60.0,56.0,29.81,South,178,12.0,29.0,87,0.02,,,0.33,,2014-10-20 23:53:00,
2014-10-20 17:12:00,59.0,54.0,29.81,South,177,14.0,24.0,83,0.02,,,0.33,,2014-10-21 00:12:00,
2014-10-20 17:22:00,60.0,55.0,29.80,South,174,15.0,24.0,84,0.02,,,0.33,,2014-10-21 00:22:00,
2014-10-20 17:42:00,60.0,56.0,29.81,SSE,158,17.0,28.0,86,0.02,,,0.33,,2014-10-21 00:42:00,
2014-10-20 17:52:00,60.0,55.0,29.81,South,171,12.0,24.0,85,0.00,,,0.33,,2014-10-21 00:52:00,
2014-10-20 18:12:00,60.0,55.0,29.81,South,185,17.0,25.0,84,0.00,,,0.33,,2014-10-21 01:12:00,
2014-10-20 18:22:00,60.0,55.0,29.82,SSW,199,16.0,25.0,83,0.00,,,0.33,,2014-10-21 01:22:00,
2014-10-20 18:42:00,59.0,54.0,29.82,South,176,16.0,25.0,84,0.00,,,0.33,,2014-10-21 01:42:00,
2014-10-20 18:53:00,59.0,54.0,29.82,South,181,12.0,19.0,85,0.00,,,0.33,,2014-10-21 01:53:00,
2014-10-20 19:22:00,59.0,55.0,29.81,South,191,16.0,30.0,87,0.00,,,0.33,,2014-10-21 02:22:00,